When you browse on this site, cookies collect data to enhance your experience and personalize the content and advertising you see.
Visit our Privacy Policy to learn more. By continuing to use the site, you agree to this use of cookies and data.
  • In Czech Republic
  • List of Countries
  • For 7 days
  • Water Temperature
  • Satellite Maps
  • Weather Map
  • Weather Widgets
  • user-avatar
    Login

    Hourly Weather Uscie Gorlickie

    Today, 16 January, Wednesday

    Time Temperature Precipitation Wind Pressure Humidity
    00:00 -2°C° 1.2 mm 5 mps 709 mmHg 92%
    01:00 -1°C° 0 mm 2 mps 709 mmHg 95%
    02:00 -1°C° 1.3 mm 3 mps 709 mmHg 94%
    03:00 -1°C° 1.3 mm 4 mps 709 mmHg 93%
    04:00 -2°C° 1.3 mm 6 mps 710 mmHg 92%
    05:00 -1°C° 0.8 mm 5 mps 710 mmHg 92%
    06:00 -1°C° 0.8 mm 5 mps 711 mmHg 92%
    07:00 0°C° 0.8 mm 5 mps 711 mmHg 92%
    08:00 0°C° 0.4 mm 5 mps 711 mmHg 94%
    09:00 0°C° 0.4 mm 4 mps 712 mmHg 96%
    10:00 0°C° 0.4 mm 4 mps 712 mmHg 98%
    11:00 +1°C° 0.3 mm 3 mps 713 mmHg 98%
    12:00 +1°C° 0.3 mm 3 mps 713 mmHg 99%
    13:00 +1°C° 0.3 mm 3 mps 713 mmHg 99%
    14:00 +2°C° 0.1 mm 2 mps 713 mmHg 98%
    15:00 +2°C° 0.1 mm 2 mps 714 mmHg 98%
    16:00 +3°C° 0.1 mm 1 mps 714 mmHg 97%
    17:00 +2°C° 0 mm 1 mps 714 mmHg 95%
    18:00 +2°C° 0 mm 1 mps 714 mmHg 94%
    19:00 +1°C° 0 mm 1 mps 714 mmHg 93%
    20:00 -1°C° 0 mm 2 mps 714 mmHg 93%
    21:00 -1°C° 0 mm 2 mps 714 mmHg 94%
    22:00 -2°C° 0 mm 2 mps 714 mmHg 95%
    23:00 -2°C° 0 mm 2 mps 714 mmHg 94%

    Tomorrow, 17 January, Thursday

    Time Temperature Precipitation Wind Pressure Humidity
    00:00 -2°C° 0 mm 3 mps 714 mmHg 94%
    01:00 -2°C° 0 mm 3 mps 714 mmHg 94%
    02:00 -3°C° 0 mm 4 mps 713 mmHg 94%
    03:00 -3°C° 0 mm 4 mps 713 mmHg 93%
    04:00 -3°C° 0 mm 4 mps 713 mmHg 93%
    05:00 -4°C° 0 mm 5 mps 713 mmHg 92%
    06:00 -4°C° 0 mm 5 mps 712 mmHg 91%
    07:00 -5°C° 0 mm 5 mps 712 mmHg 91%
    08:00 -4°C° 0 mm 5 mps 712 mmHg 90%
    09:00 -4°C° 0 mm 5 mps 712 mmHg 90%
    10:00 -2°C° 0 mm 5 mps 712 mmHg 90%
    11:00 -2°C° 0 mm 5 mps 712 mmHg 91%
    12:00 -1°C° 0 mm 4 mps 712 mmHg 92%
    13:00 -1°C° 0 mm 4 mps 712 mmHg 93%
    14:00 -1°C° 0 mm 4 mps 712 mmHg 93%
    15:00 -1°C° 0 mm 4 mps 712 mmHg 93%
    16:00 -2°C° 0 mm 4 mps 712 mmHg 92%
    17:00 -2°C° 0 mm 4 mps 712 mmHg 92%
    18:00 -2°C° 0 mm 4 mps 712 mmHg 93%
    19:00 -3°C° 0 mm 4 mps 712 mmHg 93%
    20:00 -1°C° 0.1 mm 3 mps 712 mmHg 92%
    21:00 -1°C° 0.1 mm 3 mps 712 mmHg 91%
    22:00 -1°C° 0.1 mm 3 mps 712 mmHg 91%
    23:00 -1°C° 0 mm 2 mps 712 mmHg 90%

    Day after tomorrow, 18 January, Friday

    Time Temperature Precipitation Wind Pressure Humidity
    00:00 -1°C° 0 mm 2 mps 712 mmHg 90%
    01:00 -1°C° 0 mm 2 mps 712 mmHg 90%
    02:00 -1°C° 0.1 mm 2 mps 712 mmHg 90%
    03:00 -1°C° 0.1 mm 2 mps 712 mmHg 91%
    04:00 -1°C° 0.1 mm 2 mps 712 mmHg 91%
    05:00 -2°C° 0.1 mm 2 mps 713 mmHg 89%
    06:00 -2°C° 0.1 mm 3 mps 713 mmHg 86%
    07:00 -2°C° 0.1 mm 3 mps 714 mmHg 84%
    08:00 -3°C° 0 mm 4 mps 714 mmHg 81%
    09:00 -3°C° 0 mm 4 mps 715 mmHg 78%
    10:00 -4°C° 0 mm 5 mps 715 mmHg 75%
    11:00 -4°C° 0 mm 5 mps 716 mmHg 74%
    12:00 -4°C° 0 mm 6 mps 716 mmHg 74%
    13:00 -4°C° 0 mm 6 mps 717 mmHg 73%
    14:00 -4°C° 0 mm 5 mps 718 mmHg 77%
    15:00 -4°C° 0 mm 4 mps 718 mmHg 81%
    16:00 -5°C° 0 mm 3 mps 719 mmHg 84%
    17:00 -6°C° 0 mm 3 mps 719 mmHg 85%
    18:00 -5°C° 0 mm 2 mps 720 mmHg 87%
    19:00 -6°C° 0 mm 2 mps 720 mmHg 88%
    20:00 -6°C° 0 mm 2 mps 721 mmHg 88%
    21:00 -7°C° 0 mm 2 mps 721 mmHg 89%
    22:00 -6°C° 0 mm 1 mps 721 mmHg 89%
    23:00 -6°C° 0 mm 1 mps 721 mmHg 89%

    19 January, Saturday

    Time Temperature Precipitation Wind Pressure Humidity
    00:00 -7°C° 0 mm 1 mps 721 mmHg 88%
    01:00 -7°C° 0 mm 1 mps 722 mmHg 88%
    02:00 -7°C° 0 mm 1 mps 721 mmHg 89%
    03:00 -7°C° 0 mm 1 mps 721 mmHg 89%
    04:00 -7°C° 0 mm 1 mps 721 mmHg 89%
    05:00 -7°C° 0 mm 1 mps 721 mmHg 90%
    06:00 -7°C° 0 mm 1 mps 721 mmHg 91%
    07:00 -7°C° 0 mm 1 mps 721 mmHg 91%
    08:00 -6°C° 0 mm 1 mps 721 mmHg 90%
    09:00 -4°C° 0 mm 1 mps 722 mmHg 89%
    10:00 -3°C° 0 mm 1 mps 722 mmHg 88%
    11:00 -2°C° 0 mm 1 mps 721 mmHg 86%
    12:00 -1°C° 0 mm 1 mps 721 mmHg 84%
    13:00 -1°C° 0 mm 1 mps 721 mmHg 82%
    14:00 -2°C° 0 mm 1 mps 720 mmHg 86%
    15:00 -3°C° 0 mm 1 mps 720 mmHg 89%
    16:00 -4°C° 0 mm 1 mps 720 mmHg 92%
    17:00 -4°C° 0 mm 1 mps 720 mmHg 92%
    18:00 -4°C° 0 mm 1 mps 720 mmHg 93%
    19:00 -5°C° 0 mm 0 mps 720 mmHg 93%
    20:00 -5°C° 0 mm 0 mps 720 mmHg 92%
    21:00 -5°C° 0 mm 0 mps 720 mmHg 91%
    22:00 -5°C° 0 mm 0 mps 719 mmHg 90%
    23:00 -5°C° 0 mm 0 mps 719 mmHg 90%

    20 January, Sunday

    Time Temperature Precipitation Wind Pressure Humidity
    00:00 -5°C° 0 mm 0 mps 719 mmHg 89%
    01:00 -5°C° 0 mm 0 mps 719 mmHg 89%
    02:00 -5°C° 0 mm 0 mps 719 mmHg 89%
    03:00 -5°C° 0 mm 0 mps 718 mmHg 89%
    04:00 -6°C° 0 mm 1 mps 718 mmHg 89%
    05:00 -6°C° 0 mm 1 mps 718 mmHg 90%
    06:00 -6°C° 0 mm 1 mps 718 mmHg 91%
    07:00 -6°C° 0 mm 1 mps 718 mmHg 92%
    08:00 -6°C° 0 mm 1 mps 718 mmHg 92%
    09:00 -4°C° 0 mm 1 mps 719 mmHg 92%
    10:00 -3°C° 0 mm 1 mps 719 mmHg 91%
    11:00 -5°C° 0 mm 2 mps 719 mmHg 90%
    12:00 -4°C° 0 mm 2 mps 719 mmHg 89%
    13:00 -4°C° 0 mm 2 mps 719 mmHg 87%
    14:00 -4°C° 0 mm 2 mps 719 mmHg 89%
    15:00 -5°C° 0 mm 2 mps 719 mmHg 91%
    16:00 -6°C° 0 mm 2 mps 719 mmHg 93%
    17:00 -7°C° 0 mm 2 mps 719 mmHg 92%
    18:00 -6°C° 0 mm 1 mps 720 mmHg 92%
    19:00 -7°C° 0 mm 1 mps 720 mmHg 92%
    20:00 -8°C° 0 mm 2 mps 720 mmHg 92%
    21:00 -8°C° 0 mm 2 mps 721 mmHg 91%
    22:00 -8°C° 0 mm 2 mps 721 mmHg 91%
    23:00 -8°C° 0 mm 2 mps 722 mmHg 91%

    21 January, Monday

    Time Temperature Precipitation Wind Pressure Humidity
    00:00 -7°C° 0 mm 2 mps 722 mmHg 91%
    01:00 -6°C° 0 mm 2 mps 722 mmHg 92%
    02:00 -6°C° 0.1 mm 2 mps 723 mmHg 93%
    03:00 -6°C° 0.1 mm 2 mps 723 mmHg 94%
    04:00 -6°C° 0.1 mm 2 mps 723 mmHg 95%
    05:00 -6°C° 0.1 mm 2 mps 724 mmHg 95%
    06:00 -6°C° 0.1 mm 2 mps 724 mmHg 95%
    07:00 -7°C° 0.1 mm 2 mps 725 mmHg 95%
    08:00 -6°C° 0 mm 2 mps 725 mmHg 94%
    09:00 -6°C° 0 mm 2 mps 726 mmHg 92%
    10:00 -6°C° 0 mm 2 mps 726 mmHg 90%
    11:00 -5°C° 0 mm 2 mps 726 mmHg 87%
    12:00 -5°C° 0 mm 2 mps 726 mmHg 85%
    13:00 -5°C° 0 mm 2 mps 727 mmHg 82%
    14:00 -6°C° 0 mm 2 mps 727 mmHg 84%
    15:00 -6°C° 0 mm 2 mps 727 mmHg 87%
    16:00 -6°C° 0 mm 1 mps 727 mmHg 90%
    17:00 -7°C° 0 mm 1 mps 727 mmHg 91%
    18:00 -8°C° 0 mm 1 mps 727 mmHg 91%
    19:00 -8°C° 0 mm 1 mps 727 mmHg 92%
    20:00 -9°C° 0 mm 1 mps 728 mmHg 92%
    21:00 -9°C° 0 mm 1 mps 728 mmHg 93%
    22:00 -9°C° 0 mm 1 mps 728 mmHg 93%
    23:00 -10°C° 0 mm 1 mps 728 mmHg 93%
    Show more